Theta_e
311 312 319 328 332 334 336 339 333 336 334 325 324 326 328 328 334 329 327 330 329 329 327 327 326 325 321 318 319 320 321 321 319 318 317 315 311 313 318 319 314 311 312 316 321 319 318 317 311
314 320 329 332 337 341 340 338 339 337 334 332 327 324 325 327 325 326 327 329 327 326 325 325 325 325 322 321 322 322 322 322 320 319 319 318 315 318 324 325 319 315 312 312 320 325 325 322 320
320 328 334 338 341 343 340 337 337 334 333 329 326 324 325 328 327 326 328 329 327 326 323 322 325 324 323 322 323 323 322 320 319 319 320 320 319 323 325 323 325 321 319 317 325 328 330 329 327
328 330 332 335 338 340 338 337 336 335 331 324 324 327 325 326 326 326 327 327 327 326 323 324 325 324 323 323 324 323 321 318 316 316 315 318 326 328 327 325 325 324 322 327 327 327 329 331 329
328 333 332 337 336 335 336 336 334 333 330 328 324 326 327 326 326 326 326 326 326 324 322 324 323 324 324 324 324 323 321 318 316 315 314 323 327 325 326 326 326 328 328 326 327 325 327 326 326
330 332 334 331 330 331 331 331 331 329 328 328 325 325 326 325 326 326 326 326 326 322 320 320 322 324 325 325 324 323 321 318 318 317 317 326 321 321 322 323 323 323 324 325 325 329 325 327 327
330 333 329 329 327 328 328 328 329 329 328 328 326 326 326 327 326 326 326 327 326 321 320 319 321 324 325 326 325 322 320 319 319 318 323 321 322 323 323 323 322 321 320 321 326 325 323 324 327
329 331 330 330 328 327 326 327 326 327 329 328 325 328 329 328 328 327 326 327 326 322 321 320 321 323 326 327 326 322 320 320 320 318 318 320 322 323 323 320 318 317 317 318 320 324 325 326 325
330 330 329 328 327 327 326 327 326 326 328 328 326 327 327 327 328 328 326 327 327 323 322 322 321 322 325 326 325 322 321 321 320 318 319 321 322 323 321 319 317 317 317 317 318 321 324 324 324
329 331 329 328 327 327 326 326 327 327 327 327 327 327 327 328 328 328 327 326 327 325 322 322 322 324 324 327 324 321 321 321 318 317 321 323 323 322 322 321 320 319 318 318 324 324 327 325 328
328 330 329 328 327 325 326 327 327 327 328 327 327 327 327 328 328 328 327 326 326 326 323 323 323 324 326 327 322 322 322 321 317 319 324 324 324 323 323 321 321 318 319 321 320 322 323 324 326
327 327 327 327 327 327 327 327 327 328 328 328 327 327 327 329 329 328 327 326 326 327 325 324 324 324 326 326 322 322 321 320 317 322 325 324 324 324 323 322 323 321 319 322 323 323 322 322 323
327 326 327 327 327 327 327 327 328 327 324 326 327 328 328 328 328 328 325 325 326 327 326 325 325 323 324 324 322 322 321 317 320 325 325 326 325 325 324 323 323 324 321 320 321 323 322 322 322
322 324 325 325 326 326 327 326 326 326 324 326 326 326 326 327 327 325 325 326 325 326 326 325 325 324 325 323 323 322 320 317 324 326 327 327 328 326 325 325 324 323 324 321 320 321 320 321 322
322 324 325 325 325 325 322 322 323 323 323 324 324 325 326 325 325 325 326 326 326 325 325 326 325 324 324 323 323 322 317 320 324 326 327 327 328 328 328 326 325 324 324 324 321 321 320 321 322
318 319 319 320 320 320 319 322 323 322 323 324 324 325 324 324 324 325 325 325 325 324 325 325 325 325 324 323 322 321 317 323 325 327 327 327 327 328 328 327 325 324 323 323 321 322 320 321 323
318 320 319 319 319 320 322 322 322 321 322 322 323 323 324 324 323 323 324 324 324 324 324 324 325 324 323 323 322 319 319 323 325 327 327 327 327 327 327 326 324 322 322 321 320 322 321 322 322
319 318 318 319 319 319 320 321 322 321 321 322 323 323 323 323 322 324 324 324 325 325 324 324 324 323 323 322 322 317 320 324 325 326 326 327 327 327 327 326 325 322 321 319 322 322 321 321 322
318 320 321 321 318 318 319 320 321 321 322 322 322 322 322 322 324 324 325 325 325 324 323 323 323 323 323 322 321 317 321 325 324 325 327 328 327 328 327 327 326 324 321 320 322 322 321 321 322
315 318 319 319 317 318 319 320 322 322 322 321 322 323 324 325 324 325 325 324 324 323 323 323 323 323 322 322 319 319 323 324 324 327 326 326 327 327 327 327 327 323 321 322 322 321 321 322 322
315 316 316 317 318 319 320 321 320 321 322 322 321 322 323 323 324 325 325 324 321 321 322 323 322 322 322 320 318 321 324 324 325 324 325 326 326 326 324 325 325 323 323 322 321 321 321 323 322
317 316 316 316 317 319 320 323 322 322 322 322 322 324 325 324 323 323 324 323 322 321 322 322 322 323 320 318 320 323 324 325 325 323 324 325 325 323 324 325 324 323 322 321 321 320 321 322 322
317 317 317 318 319 320 320 322 321 322 322 323 323 324 325 322 321 322 323 323 322 321 322 323 323 321 320 320 322 324 326 326 324 323 324 325 326 323 323 323 322 321 321 321 321 321 320 321 322
317 318 319 320 320 322 320 321 321 322 322 322 325 325 323 323 322 322 323 323 321 323 323 323 322 321 321 321 323 327 327 327 325 323 323 325 325 323 322 321 322 322 322 322 322 322 322 322 323
319 320 320 320 320 322 321 321 322 323 322 322 324 326 323 323 323 323 323 322 323 323 323 323 322 322 321 322 325 327 328 327 326 325 324 325 325 324 322 322 323 324 325 324 324 324 324 324 324
319 320 319 321 322 321 321 320 321 323 322 321 323 324 323 325 324 324 324 324 323 324 323 323 323 323 321 323 327 327 328 328 326 324 323 324 324 323 322 324 324 325 325 324 324 324 324 325 325
320 320 319 321 322 323 324 324 324 324 325 325 324 323 325 326 325 324 324 323 324 324 324 323 324 320 322 327 327 327 328 328 325 323 323 324 324 322 322 324 324 324 324 324 324 324 326 325 324
318 319 319 319 320 320 322 324 326 326 326 327 327 326 325 326 325 324 324 324 324 324 324 324 321 322 324 326 326 327 327 328 325 324 323 322 323 322 320 323 324 325 323 324 325 326 326 324 326
315 319 318 319 318 319 319 320 327 328 327 329 329 326 326 326 326 325 325 324 324 325 324 324 320 323 325 326 327 327 328 329 326 325 325 322 322 321 321 322 324 324 322 324 324 325 324 325 325
316 318 318 317 319 319 320 320 324 326 326 326 327 324 325 326 326 325 325 324 325 325 324 322 322 324 325 326 327 327 327 328 326 325 324 323 322 320 320 321 321 321 323 324 323 325 328 327 328
Wind_Speed
14 15 14 7 2 2 3 5 2 3 2 1 3 5 5 3 4 6 4 11 11 14 14 18 16 16 14 13 12 12 11 10 10 10 10 10 10 10 10 10 9 9 11 12 12 12 11 10 12
15 15 8 3 2 3 4 4 6 5 3 15 8 9 6 7 13 7 8 13 12 14 13 15 16 17 16 13 11 11 11 11 11 12 12 11 11 11 12 12 11 12 13 13 13 12 11 12 11
15 10 3 2 3 6 3 6 3 3 12 5 3 5 3 4 7 6 10 12 14 16 12 12 18 18 19 16 14 12 10 10 11 12 13 13 14 12 13 15 15 14 16 15 11 11 13 13 12
9 4 3 4 11 8 5 4 3 11 2 3 3 8 6 12 6 8 10 12 15 15 13 14 18 17 19 18 16 12 10 9 10 12 13 13 12 14 16 17 18 19 17 15 15 17 18 16 14
9 3 4 4 9 7 9 17 8 9 8 4 3 3 6 12 12 12 11 14 16 14 13 16 17 20 20 19 17 14 11 9 8 10 12 11 14 17 18 19 20 19 19 18 18 18 18 19 17
4 2 4 8 9 7 8 14 8 7 4 4 1 4 8 11 16 14 13 15 16 14 12 16 18 20 20 18 16 14 12 10 9 11 11 11 16 19 19 20 21 23 21 21 21 20 20 20 20
5 4 5 8 11 11 5 6 8 6 4 1 3 3 5 13 18 15 15 17 19 18 16 16 19 21 22 21 18 15 13 11 11 12 11 14 16 17 18 21 23 24 26 26 25 26 24 24 23
3 3 5 6 9 9 1 2 4 4 2 8 2 2 9 18 21 22 20 21 24 22 21 19 20 23 24 24 22 18 14 12 12 13 13 14 16 18 20 19 20 20 20 20 24 26 26 25 25
6 6 13 14 11 9 3 4 1 3 13 10 8 19 16 20 23 27 23 27 29 28 27 23 23 25 25 25 23 20 15 14 13 15 15 15 17 18 17 18 16 14 16 17 17 18 19 21 25
9 11 19 15 14 13 8 8 9 8 18 29 24 20 18 22 24 27 26 26 34 35 32 30 27 27 27 26 24 21 16 15 14 16 16 17 18 17 16 15 13 14 14 15 15 17 19 18 16
11 20 25 24 24 12 19 21 17 17 22 31 21 29 31 25 29 28 27 28 33 37 36 33 31 27 28 28 24 21 17 15 15 16 16 16 17 18 16 14 12 12 12 12 13 16 18 18 15
15 28 30 34 27 18 23 24 22 24 40 35 33 28 28 34 31 34 32 31 35 39 41 37 32 28 29 28 25 20 17 16 16 15 15 14 15 16 15 14 13 13 12 13 13 13 13 16 16
22 21 26 27 28 27 27 28 21 31 50 33 29 29 28 32 34 34 31 28 32 39 43 41 35 30 31 29 25 21 17 17 15 15 13 14 13 13 14 15 16 15 14 14 14 14 13 13 15
18 28 30 24 22 30 25 31 21 34 46 28 29 32 31 29 34 32 30 28 30 35 40 44 38 31 31 27 24 19 17 15 14 12 12 14 15 14 15 16 17 17 16 14 13 14 14 13 14
19 16 13 15 18 14 14 24 18 41 30 26 32 30 30 34 28 30 31 29 29 32 40 45 38 32 30 26 22 18 17 15 12 11 13 15 16 16 16 16 16 16 17 15 14 13 12 13 14
10 11 18 13 20 14 16 25 17 27 18 21 24 25 29 37 35 30 30 30 32 33 41 40 37 33 29 25 21 18 17 14 10 10 13 15 17 17 16 16 15 14 15 16 14 14 12 13 13
10 14 14 11 10 5 16 21 16 16 10 22 27 28 30 31 35 35 32 30 29 27 36 33 35 32 28 24 21 19 16 13 11 12 14 15 17 16 15 14 13 14 15 15 14 14 12 13 14
15 14 14 14 10 17 20 24 18 26 16 24 27 30 30 31 37 33 33 22 19 22 26 27 33 31 27 23 21 18 15 12 12 14 15 16 16 14 14 13 13 14 14 14 13 13 13 13 12
18 20 26 19 14 14 19 18 12 21 23 26 28 31 33 35 32 29 23 16 15 17 21 27 32 30 28 24 21 17 14 11 12 14 16 16 13 12 13 13 13 13 13 13 13 13 13 13 13
24 23 21 16 12 12 15 21 15 16 24 29 26 29 30 27 27 19 15 13 12 15 21 26 30 29 25 20 15 13 11 11 11 13 14 11 9 10 13 13 11 10 11 12 12 13 13 14 14
27 28 23 19 12 13 13 23 18 22 16 22 26 28 30 26 20 11 12 12 14 17 21 27 29 24 20 16 13 10 9 8 9 9 9 7 8 9 10 9 9 9 9 9 9 11 13 14 16
26 24 22 20 13 16 3 16 15 21 22 21 26 22 24 17 17 12 11 9 12 16 22 28 25 21 17 14 10 9 7 6 6 7 6 7 6 5 2 3 6 7 5 5 5 8 12 14 14
18 14 17 19 18 18 17 11 13 10 20 23 21 23 15 9 10 10 9 8 12 21 29 25 22 18 14 12 10 7 3 4 5 6 6 7 5 3 2 3 4 4 3 4 8 10 13 13 13
11 13 14 8 10 13 15 11 12 16 19 14 13 11 5 8 6 8 10 13 21 28 28 24 20 16 13 11 9 5 2 3 5 6 7 6 5 4 4 5 4 3 2 4 6 9 11 11 10
20 14 7 7 7 10 15 13 19 17 18 19 18 8 5 4 8 15 20 25 31 32 27 22 19 16 12 10 9 3 1 3 5 6 7 4 3 6 7 6 5 4 3 4 6 9 9 9 8
27 21 9 9 6 7 6 10 8 18 20 29 21 14 7 9 13 16 21 28 32 30 25 22 19 14 11 11 8 4 1 3 5 7 4 2 6 8 8 7 7 6 4 5 5 7 8 8 7
25 20 14 2 2 4 5 7 10 16 12 8 11 6 10 13 15 20 25 30 31 27 24 20 18 13 12 11 7 4 1 3 5 5 4 5 8 11 9 8 6 5 3 3 4 6 8 4 3
17 20 10 9 10 8 5 5 8 3 15 10 9 10 13 15 17 20 27 30 28 24 22 20 14 12 13 10 7 5 1 3 4 4 5 6 8 11 10 9 5 4 2 3 4 5 5 5 10
11 21 7 9 5 6 3 5 8 11 5 4 3 12 18 19 19 22 25 28 26 23 22 20 15 13 13 9 9 4 2 2 2 2 4 5 8 9 10 9 6 3 2 4 3 4 5 8 9
20 22 20 10 9 8 2 4 2 8 5 6 2 12 14 17 20 22 24 29 27 24 23 19 16 14 12 10 8 5 2 1 1 1 3 6 8 9 8 8 5 4 4 4 5 5 7 9 9
Wind_Direction
148 144 148 144 200 261 227 229 251 226 195 92 137 191 242 257 194 297 221 188 177 188 185 196 204 208 213 214 224 231 241 261 279 282 277 278 282 274 267 251 263 263 262 262 265 267 267 266 252
149 144 148 134 222 217 221 232 217 235 321 314 252 213 221 255 237 254 241 191 184 184 182 189 195 205 212 217 224 236 247 267 280 284 284 280 277 267 269 259 277 290 284 263 250 262 270 266 266
152 155 195 209 199 223 230 200 188 282 313 283 278 237 202 226 246 231 209 203 191 181 184 187 196 201 210 216 223 233 247 272 285 287 284 280 276 255 257 267 274 285 284 279 261 268 272 269 272
155 144 77 242 235 241 239 191 239 320 24 80 277 275 249 254 268 247 225 212 194 188 190 195 200 204 212 217 223 229 243 267 286 293 289 278 270 265 265 267 265 273 271 265 256 247 247 258 260
156 132 228 250 252 258 247 262 267 285 300 285 285 269 263 276 269 259 238 219 204 196 194 202 203 209 214 218 222 227 240 257 280 293 290 274 268 267 266 266 264 268 264 264 260 258 260 252 249
139 143 226 250 255 256 264 260 251 242 238 309 226 267 267 289 321 278 250 226 212 205 206 208 209 212 216 220 222 229 240 252 279 298 294 274 268 267 265 264 263 265 262 261 260 253 258 254 250
196 173 249 271 280 284 253 254 219 204 207 158 318 255 284 327 341 305 257 229 216 208 211 215 215 214 219 225 225 227 238 257 278 295 290 269 268 268 270 272 271 268 265 259 256 256 255 251 251
207 211 230 235 266 273 308 233 148 194 310 323 238 247 299 311 326 323 284 237 219 217 216 221 220 219 219 223 226 229 239 259 277 289 283 275 271 269 275 275 275 271 268 261 254 254 253 252 252
182 231 240 236 228 252 229 249 72 303 300 275 270 285 292 302 310 317 296 248 223 222 221 223 225 224 223 226 228 229 241 259 277 284 280 277 275 275 269 275 271 269 266 263 259 256 255 253 250
194 228 235 236 246 261 279 288 291 288 293 279 286 282 299 303 300 304 299 265 231 227 228 226 227 224 225 225 226 229 242 260 279 282 281 277 277 272 269 270 266 268 263 259 259 249 251 266 252
211 231 236 256 252 265 282 280 289 288 287 280 290 297 305 298 296 298 292 275 256 240 233 230 229 226 226 226 227 233 244 260 278 278 276 274 273 267 266 265 265 269 265 264 259 257 259 256 253
234 231 237 249 261 264 265 286 277 282 271 282 291 290 290 293 292 294 289 279 256 245 242 234 230 227 226 227 229 237 248 266 272 272 267 269 270 265 263 261 260 265 262 265 267 265 265 254 253
232 245 232 246 263 263 271 268 270 286 285 287 281 284 283 287 289 293 295 289 261 256 244 238 233 227 227 224 228 236 251 266 266 266 262 268 270 269 265 264 261 262 263 266 265 261 261 257 249
230 240 246 242 255 263 266 269 267 268 276 286 285 283 284 282 291 293 293 286 273 263 252 241 232 226 225 225 229 239 254 256 260 262 270 273 269 270 269 266 264 259 255 262 263 257 256 255 245
241 252 236 234 236 248 286 269 244 261 279 274 282 286 285 288 292 295 293 291 287 273 257 244 230 224 225 225 226 236 251 249 258 271 276 277 273 271 269 266 263 259 248 255 258 253 256 250 245
220 229 242 230 234 249 225 266 267 268 272 278 279 287 289 290 289 289 289 288 289 275 262 242 228 224 223 221 222 239 243 246 257 276 281 280 276 270 265 267 267 260 248 249 251 247 255 246 240
211 233 221 237 198 209 200 268 262 273 284 285 284 287 285 287 292 289 290 286 278 267 259 243 226 220 217 213 221 236 237 245 260 277 287 283 278 271 263 263 261 256 247 241 243 246 250 239 233
219 227 238 238 222 230 243 253 275 286 295 282 290 287 283 281 291 298 296 282 263 258 254 235 220 214 207 206 221 231 235 247 266 279 286 288 281 266 259 261 259 253 244 241 244 250 250 236 224
252 252 246 243 224 245 255 272 276 293 293 286 288 285 281 283 297 298 294 279 257 246 234 216 207 200 198 205 219 227 235 250 274 284 288 290 278 265 264 261 255 252 240 242 244 248 241 228 211
231 244 243 250 247 253 281 277 288 282 280 281 281 288 280 287 293 293 283 272 248 233 215 202 197 194 194 211 218 223 234 255 277 288 292 291 275 266 268 267 249 239 232 242 248 245 235 218 205
224 230 237 244 264 263 278 279 275 278 280 282 279 281 281 277 289 293 280 256 233 212 200 190 180 182 196 204 207 216 235 265 294 295 303 293 284 280 273 258 235 223 237 245 246 237 222 204 199
231 221 242 246 254 260 246 284 274 283 284 277 281 278 272 270 275 274 272 248 218 198 179 170 173 184 189 195 197 207 237 271 296 306 307 302 300 305 264 202 203 219 231 233 226 208 194 194 203
236 221 229 236 240 264 257 269 281 276 275 275 274 269 274 294 257 250 233 212 185 173 166 168 177 179 182 186 187 203 264 282 303 319 315 302 301 273 214 193 181 184 197 212 203 193 186 193 202
184 216 210 222 237 247 252 243 277 265 257 275 267 255 303 309 240 199 170 159 157 161 166 172 173 173 177 184 187 183 297 299 319 320 313 303 276 216 166 150 144 152 176 194 178 178 185 191 202
189 179 176 210 218 255 249 235 244 262 249 255 262 285 298 286 168 158 157 156 157 163 170 171 171 171 176 182 175 175 320 337 331 324 324 296 235 169 153 139 120 117 132 158 177 187 194 197 205
188 185 189 194 197 225 165 212 248 242 255 245 251 275 241 180 163 156 158 159 161 167 172 171 169 170 174 170 162 163 39 359 347 340 326 175 160 152 151 137 123 118 132 141 153 175 189 208 218
191 203 192 213 37 254 167 253 283 248 257 237 237 219 186 168 164 160 163 165 167 171 173 171 166 170 169 163 163 160 91 15 12 18 66 122 151 153 152 152 141 145 137 116 148 170 182 186 196
188 174 190 212 213 233 193 261 249 240 226 213 202 195 168 165 159 163 167 171 172 171 171 167 166 168 163 159 162 162 140 24 21 44 79 106 146 156 163 168 155 157 157 113 134 152 178 184 171
178 187 188 192 220 209 243 239 209 238 218 196 183 167 169 158 163 167 172 173 172 172 170 167 167 166 166 162 165 170 173 13 21 41 83 125 142 158 168 170 160 137 127 114 133 159 169 162 163
197 188 183 188 192 211 247 250 21 256 271 251 191 140 154 162 162 168 174 172 176 173 171 171 169 167 168 167 170 184 199 354 26 91 137 142 152 163 162 170 181 150 125 124 136 142 145 145 151